Date String (YYYY-MM-DD hh:mm:ss) UTC,Instrument flags,Ambient pressure (hPa),Sample flow (lpm),Bypass flow (lpm),Sample temperature (°C),Ambient temperature (°C),ASC tube jacket temperature (°C),LED temperature (°C),Box temperature (°C),Sample RH (%),Span deviation,Mass concentration (μg/m³),Mass concentration (μg/m³),Mass concentration (μg/m³)
DateTimeUTC,F1_M11,P_M11,Q1_M11,Q2_M11,T1_M11,T2_M11,T3_M11,T4_M11,T5_M11,U1_M11,ZSPAN_M11,X0_M11,X2_M11,X1_M11
2022-05-26 13:00:00,,0827.4,4.99,0.00,28.1,26.9,00.0,37.1,30.0,16.1,0000.0,0006.07,0003.18,0002.45
2022-05-26 13:01:00,,0827.4,4.99,0.00,28.1,26.9,00.0,37.1,30.0,15.9,0000.0,0006.13,0003.20,0002.48
2022-05-26 13:02:00,,0827.3,5.00,0.00,28.1,26.9,00.0,37.1,30.0,16.0,0000.0,0005.59,0003.17,0002.48
2022-05-26 13:03:00,,0827.3,5.01,0.00,28.1,26.9,00.0,37.0,30.0,16.9,0000.0,0005.57,0003.18,0002.49
2022-05-26 13:04:00,,0827.4,5.01,0.00,28.1,26.9,00.0,37.0,30.0,16.7,0000.0,0005.86,0003.18,0002.51
2022-05-26 13:05:00,,0827.4,5.00,0.00,28.1,26.9,00.0,37.0,30.0,16.1,0000.0,0006.98,0003.21,0002.53
2022-05-26 13:06:00,,0827.4,5.00,0.00,28.1,26.9,00.0,37.0,30.0,16.4,0000.0,0007.59,0003.20,0002.53
2022-05-26 13:07:00,,0827.4,4.99,0.00,28.1,27.0,00.0,37.0,30.0,16.3,0000.0,0007.40,0003.20,0002.55
2022-05-26 13:08:00,,0827.4,5.00,0.00,28.1,27.0,00.0,37.0,30.0,16.5,0000.0,0007.36,0003.18,0002.55
2022-05-26 13:09:00,,0827.4,5.00,0.00,28.1,27.0,00.0,37.0,30.0,16.5,0000.0,0007.77,0003.17,0002.56
2022-05-26 13:10:00,,0827.4,5.00,0.00,28.1,27.0,00.0,37.0,30.0,16.8,0000.0,0007.80,0003.19,0002.56
2022-05-26 13:11:00,,0827.4,4.99,0.00,28.1,27.0,00.0,37.0,30.0,16.7,0000.0,0008.16,0003.22,0002.55
2022-05-26 13:12:00,,0827.4,5.00,0.00,28.1,27.0,00.0,37.0,30.0,16.9,0000.0,0008.51,0003.18,0002.55
2022-05-26 13:13:00,,0827.4,5.00,0.00,28.1,27.0,00.0,37.0,30.0,16.9,0000.0,0008.95,0003.18,0002.56
2022-05-26 13:14:00,,0827.4,4.99,0.00,28.1,27.0,00.0,37.0,30.0,16.3,0000.0,0009.20,0003.17,0002.56
2022-05-26 13:15:00,,0827.3,4.99,0.00,28.1,27.0,00.0,37.0,30.0,16.7,0000.0,0009.10,0003.15,0002.55
2022-05-26 13:16:00,,0827.3,5.00,0.00,28.1,27.0,00.0,37.0,30.0,15.8,0000.0,0008.41,0003.11,0002.54
2022-05-26 13:17:00,,0827.3,5.00,0.00,28.1,27.0,00.0,37.0,30.0,16.3,0000.0,0008.06,0003.12,0002.54
2022-05-26 13:18:00,,0827.3,5.01,0.00,28.1,27.0,00.0,37.0,30.0,15.6,0000.0,0008.50,0003.13,0002.52
2022-05-26 13:19:00,,0827.3,5.01,0.00,28.1,27.0,00.0,37.0,30.0,15.6,0000.0,0008.48,0003.15,0002.52
2022-05-26 13:20:00,,0827.3,4.99,0.00,28.1,27.0,00.0,37.0,30.0,16.1,0000.0,0009.28,0003.15,0002.51
2022-05-26 13:21:00,,0827.3,4.99,0.00,28.1,27.0,00.0,37.0,30.0,16.4,0000.0,0009.29,0003.15,0002.51
2022-05-26 13:22:00,,0827.3,5.00,0.00,28.1,27.0,00.0,37.0,30.0,16.8,0000.0,0009.06,0003.12,0002.52
2022-05-26 13:23:00,,0827.3,5.00,0.00,28.1,27.0,00.0,37.0,30.0,16.8,0000.0,0008.73,0003.10,0002.51
2022-05-26 13:24:00,,0827.3,5.01,0.00,28.1,27.0,00.0,37.0,30.0,16.8,0000.0,0008.65,0003.12,0002.50
2022-05-26 13:25:00,,0827.3,5.01,0.00,28.1,27.0,00.0,37.0,30.0,16.4,0000.0,0008.43,0003.13,0002.50
2022-05-26 13:26:00,,0827.3,5.01,0.00,28.1,27.0,00.0,37.0,30.0,16.5,0000.0,0008.29,0003.13,0002.49
2022-05-26 13:27:00,,0827.3,4.99,0.00,28.1,27.0,00.0,37.0,30.0,16.7,0000.0,0008.23,0003.12,0002.48
2022-05-26 13:28:00,,0827.3,5.00,0.00,28.1,27.0,00.0,37.0,30.0,16.3,0000.0,0008.19,0003.11,0002.48
2022-05-26 13:29:00,,0827.3,5.00,0.00,28.1,27.0,00.0,37.0,30.0,16.5,0000.0,0007.94,0003.11,0002.50
2022-05-26 13:30:00,,0827.3,5.00,0.00,28.1,27.0,00.0,37.0,30.0,16.0,0000.0,0007.76,0003.09,0002.50
2022-05-26 13:31:00,,0827.3,5.01,0.00,28.1,27.0,00.0,37.0,30.0,15.7,0000.0,0005.81,0003.06,0002.50
2022-05-26 13:32:00,,0827.3,4.99,0.00,28.2,27.1,00.0,37.1,30.0,15.6,0000.0,0005.63,0003.04,0002.51
2022-05-26 13:33:00,,0827.3,5.00,0.00,28.2,27.1,00.0,37.1,30.0,16.0,0000.0,0005.49,0003.02,0002.50
2022-05-26 13:34:00,,0827.3,4.99,0.00,28.2,27.1,00.0,37.1,30.0,17.2,0000.0,0005.16,0003.04,0002.51
2022-05-26 13:35:00,,0827.3,5.00,0.00,28.2,27.1,00.0,37.1,30.0,17.2,0000.0,0004.71,0003.02,0002.53
2022-05-26 13:36:00,,0827.3,5.00,0.00,28.2,27.1,00.0,37.1,30.0,17.3,0000.0,0004.58,0003.04,0002.53
2022-05-26 13:37:00,,0827.3,5.01,0.00,28.2,27.1,00.0,37.1,30.0,17.2,0000.0,0004.73,0003.05,0002.54
2022-05-26 13:38:00,,0827.2,5.00,0.00,28.2,27.1,00.0,37.1,30.1,17.0,0000.0,0004.88,0003.07,0002.56
2022-05-26 13:39:00,,0827.2,4.99,0.00,28.2,27.1,00.0,37.1,30.1,17.1,0000.0,0006.79,0003.10,0002.56
2022-05-26 13:40:00,,0827.2,4.99,0.00,28.2,27.1,00.0,37.1,30.1,16.7,0000.0,0007.98,0003.09,0002.55
2022-05-26 13:41:00,,0827.2,5.01,0.00,28.2,27.2,00.0,37.1,30.1,15.4,0000.0,0007.90,0003.05,0002.53
2022-05-26 13:42:00,,0827.3,5.01,0.00,28.2,27.2,00.0,37.1,30.1,15.3,0000.0,0007.92,0003.04,0002.52
2022-05-26 13:43:00,,0827.2,4.99,0.00,28.2,27.2,00.0,37.1,30.1,15.1,0000.0,0008.08,0003.05,0002.52
2022-05-26 13:44:00,,0827.2,5.00,0.00,28.2,27.2,00.0,37.1,30.1,15.3,0000.0,0008.11,0003.05,0002.51
2022-05-26 13:45:00,,0827.2,5.01,0.00,28.2,27.2,00.0,37.1,30.1,15.1,0000.0,0008.19,0003.06,0002.49
2022-05-26 13:46:00,,0827.2,5.01,0.00,28.2,27.2,00.0,37.1,30.1,15.6,0000.0,0008.27,0003.06,0002.45
2022-05-26 13:47:00,,0827.2,4.98,0.00,28.2,27.2,00.0,37.1,30.1,15.7,0000.0,0008.20,0003.04,0002.44
2022-05-26 13:48:00,,0827.5,5.00,0.00,28.2,27.2,00.0,37.1,30.1,15.8,0000.0,0008.21,0003.10,0002.43
2022-05-26 13:49:00,,0827.4,5.00,0.00,28.2,27.2,00.0,37.1,30.1,16.0,0000.0,0008.16,0003.13,0002.41
2022-05-26 13:50:00,,0827.8,5.01,0.00,28.2,27.2,00.0,37.1,30.1,14.8,0000.0,0006.69,0003.13,0002.41
2022-05-26 13:51:00,,0827.5,4.99,0.00,28.2,27.2,00.0,37.1,30.1,14.8,0000.0,0004.98,0003.11,0002.41
2022-05-26 13:52:00,,0827.6,5.00,0.00,28.2,27.2,00.0,37.1,30.1,14.6,0000.0,0004.95,0003.13,0002.42
2022-05-26 13:53:00,,0827.7,5.00,0.00,28.2,27.2,00.0,37.1,30.1,14.7,0000.0,0005.01,0003.15,0002.43
2022-05-26 13:54:00,,0827.7,5.01,0.00,28.2,27.2,00.0,37.1,30.1,15.3,0000.0,0004.82,0003.16,0002.43
2022-05-26 13:55:00,,0827.6,5.01,0.00,28.2,27.2,00.0,37.1,30.1,15.3,0000.0,0004.84,0003.17,0002.43
2022-05-26 13:56:00,,0827.8,4.99,0.00,28.2,27.2,00.0,37.2,30.1,15.2,0000.0,0004.79,0003.17,0002.46
2022-05-26 13:57:00,,0827.8,5.02,0.00,28.2,27.2,00.0,37.2,30.1,15.7,0000.0,0004.82,0003.19,0002.48
2022-05-26 13:58:00,,0827.7,4.99,0.00,28.2,27.2,00.0,37.2,30.1,16.1,0000.0,0004.71,0003.18,0002.50
2022-05-26 13:59:00,,0827.7,4.99,0.00,28.3,27.2,00.0,37.2,30.1,16.1,0000.0,0004.51,0003.15,0002.52
